| time (UTC) | temp C | wind direction | speed KPH | gust KPH | rain 1hr cm | rain 24hr cm | rain mn cm | humidity % | barometer mb |
| 20260901200038 | 16 | 321 | 0.0 | 0.0 | 0.05 | 0.25 | 0.25 | 88 | 1017.2 |
| 20260901194530 | 16 | 321 | 0.0 | 1.6 | 0.03 | 0.23 | 0.23 | 89 | 1017.3 |
| 20260901193029 | 16 | 321 | 0.0 | 3.2 | 0.03 | 0.23 | 0.23 | 88 | 1017.2 |
| 20260901191549 | 16 | 321 | 0.0 | 1.6 | 0.03 | 0.20 | 0.20 | 88 | 1017.1 |
| 20260901190025 | 17 | 321 | 0.0 | 3.2 | 0.05 | 0.20 | 0.20 | 88 | 1016.9 |
| 20260901184524 | 17 | 321 | 0.0 | 1.6 | 0.15 | 0.20 | 0.20 | 88 | 1016.9 |
| 20260901183023 | 17 | 321 | 0.0 | 1.6 | 0.18 | 0.20 | 0.20 | 87 | 1017.1 |
| 20260901181522 | 17 | 321 | 0.0 | 1.6 | 0.15 | 0.18 | 0.18 | 87 | 1017.1 |
| 20260901180019 | 17 | 321 | 0.0 | 1.6 | 0.13 | 0.15 | 0.15 | 85 | 1016.8 |
| 20260901174517 | 18 | 321 | 0.0 | 1.6 | 0.00 | 0.03 | 0.03 | 83 | 1016.6 |
| 20260901173022 | 18 | 321 | 0.0 | 1.6 | 0.00 | 0.03 | 0.03 | 81 | 1016.9 |
| 20260901171521 | 19 | 320 | 0.0 | 3.2 | 0.00 | 0.03 | 0.03 | 80 | 1016.8 |
| 20260901170014 | 19 | 320 | 0.0 | 4.8 | 0.00 | 0.03 | 0.03 | 80 | 1016.6 |
| 20260901164531 | 20 | 317 | 0.0 | 3.2 | 0.00 | 0.03 | 0.03 | 82 | 1016.6 |
| 20260901163009 | 20 | 302 | 1.6 | 11.3 | 0.00 | 0.03 | 0.03 | 82 | 1016.4 |
| 20260901161513 | 20 | 24 | 0.0 | 3.2 | 0.00 | 0.03 | 0.03 | 82 | 1016.3 |
| 20260901160007 | 20 | 5 | 0.0 | 4.8 | 0.00 | 0.03 | 0.03 | 83 | 1016.4 |
| 20260901154504 | 20 | 163 | 0.0 | 4.8 | 0.00 | 0.03 | 0.03 | 84 | 1016.3 |
| 20260901153005 | 21 | 142 | 0.0 | 8.0 | 0.00 | 0.03 | 0.03 | 85 | 1016.5 |
| 20260901151502 | 20 | 81 | 0.0 | 3.2 | 0.03 | 0.03 | 0.03 | 87 | 1016.6 |
| 20260901150100 | 20 | 81 | 0.0 | 3.2 | 0.03 | 0.03 | 0.03 | 88 | 1016.6 |
| 20260901144559 | 20 | 81 | 0.0 | 1.6 | 0.03 | 0.03 | 0.03 | 89 | 1016.8 |
| 20260901143057 | 20 | 81 | 0.0 | 1.6 | 0.03 | 0.03 | 0.03 | 89 | 1016.6 |
| 20260901141552 | 19 | 81 | 0.0 | 1.6 | 0.00 | 0.00 | 0.00 | 89 | 1016.9 |
| 20260901140048 | 19 | 81 | 0.0 | 0.0 | 0.00 | 0.00 | 0.00 | 88 | 1017.2 |
| 20260901134547 | 19 | 81 | 0.0 | 1.6 | 0.00 | 0.00 | 0.00 | 88 | 1017.1 |
| 20260901133045 | 18 | 81 | 0.0 | 3.2 | 0.00 | 0.00 | 0.00 | 88 | 1016.7 |
| 20260901131547 | 18 | 81 | 0.0 | 1.6 | 0.00 | 0.00 | 0.00 | 88 | 1016.9 |
| 20260901130055 | 18 | 81 | 0.0 | 0.0 | 0.00 | 0.00 | 0.00 | 88 | 1017.0 |
| 20260901124542 | 18 | 81 | 0.0 | 0.0 | 0.00 | 0.00 | 0.00 | 87 | 1016.9 |
| 20260901123041 | 18 | 81 | 0.0 | 3.2 | 0.00 | 0.00 | 0.00 | 87 | 1016.9 |
| 20260901121540 | 18 | 81 | 0.0 | 1.6 | 0.00 | 0.00 | 0.00 | 87 | 1016.9 |
| 20260901120040 | 18 | 81 | 0.0 | 1.6 | 0.00 | 0.00 | 0.00 | 87 | 1016.9 |
| 20260901114603 | 18 | 81 | 0.0 | 0.0 | 0.00 | 0.03 | 0.00 | 88 | 1016.8 |
| 20260901113039 | 18 | 81 | 0.0 | 4.8 | 0.00 | 0.03 | 0.00 | 88 | 1016.5 |
| 20260901111541 | 18 | 81 | 0.0 | 0.0 | 0.00 | 0.03 | 0.00 | 88 | 1016.6 |
| 20260901110038 | 18 | 81 | 0.0 | 0.0 | 0.00 | 0.03 | 0.00 | 88 | 1016.5 |
| 20260901104535 | 18 | 81 | 0.0 | 0.0 | 0.00 | 0.03 | 0.00 | 87 | 1016.5 |
| 20260901103036 | 18 | 81 | 0.0 | 0.0 | 0.00 | 0.03 | 0.00 | 87 | 1016.4 |
| 20260901101535 | 18 | 81 | 0.0 | 0.0 | 0.00 | 0.03 | 0.00 | 87 | 1016.2 |
| 20260901100034 | 18 | 81 | 0.0 | 0.0 | 0.00 | 0.03 | 0.00 | 87 | 1016.2 |
| 20260901094538 | 18 | 81 | 0.0 | 0.0 | 0.00 | 0.03 | 0.00 | 87 | 1016.2 |
| 20260901093033 | 18 | 81 | 0.0 | 0.0 | 0.00 | 0.03 | 0.00 | 87 | 1016.2 |
| 20260901091532 | 18 | 81 | 0.0 | 0.0 | 0.00 | 0.03 | 0.00 | 87 | 1016.2 |
| 20260901090030 | 18 | 81 | 0.0 | 0.0 | 0.00 | 0.03 | 0.00 | 87 | 1016.2 |
| 20260901084530 | 18 | 81 | 0.0 | 0.0 | 0.00 | 0.03 | 0.00 | 86 | 1016.3 |
| 20260901083027 | 18 | 81 | 0.0 | 0.0 | 0.00 | 0.03 | 0.00 | 86 | 1016.6 |
| 20260901081525 | 18 | 81 | 0.0 | 0.0 | 0.00 | 0.03 | 0.00 | 86 | 1017.0 |
| 20260901080025 | 18 | 81 | 0.0 | 0.0 | 0.00 | 0.03 | 0.00 | 86 | 1017.1 |
| 20260901074524 | 18 | 81 | 0.0 | 0.0 | 0.00 | 0.03 | 0.00 | 86 | 1016.9 |
| 20260901073025 | 18 | 81 | 0.0 | 0.0 | 0.00 | 0.03 | 0.00 | 86 | 1016.9 |
| 20260901071522 | 18 | 81 | 0.0 | 0.0 | 0.00 | 0.03 | 0.00 | 86 | 1017.0 |
| 20260901070023 | 18 | 81 | 0.0 | 0.0 | 0.00 | 0.03 | 0.00 | 86 | 1017.0 |
| 20260901064521 | 18 | 81 | 0.0 | 0.0 | 0.00 | 0.03 | 0.00 | 86 | 1017.1 |
| 20260901063025 | 18 | 81 | 0.0 | 0.0 | 0.00 | 0.03 | 0.00 | 85 | 1017.3 |
| 20260901061525 | 18 | 81 | 0.0 | 0.0 | 0.00 | 0.03 | 0.00 | 85 | 1017.2 |
| 20260901060018 | 18 | 81 | 0.0 | 0.0 | 0.00 | 0.03 | 0.00 | 85 | 1017.2 |
| 20260901054518 | 18 | 81 | 0.0 | 0.0 | 0.00 | 0.03 | 0.00 | 85 | 1017.1 |
| 20260901053016 | 18 | 81 | 0.0 | 0.0 | 0.00 | 0.03 | 0.00 | 85 | 1017.4 |
| 20260901051515 | 18 | 81 | 0.0 | 0.0 | 0.00 | 0.03 | 0.00 | 85 | 1017.4 |
| 20260901050014 | 18 | 81 | 0.0 | 0.0 | 0.00 | 0.03 | 0.00 | 84 | 1017.4 |
| 20260901044531 | 18 | 81 | 0.0 | 0.0 | 0.00 | 0.03 | 0.00 | 84 | 1017.6 |
| 20260901043012 | 18 | 81 | 0.0 | 0.0 | 0.00 | 0.03 | 0.00 | 84 | 1017.4 |
| 20260901041522 | 18 | 81 | 0.0 | 0.0 | 0.00 | 0.03 | 0.00 | 84 | 1017.6 |
| 20260901040008 | 18 | 81 | 0.0 | 0.0 | 0.00 | 0.03 | 0.00 | 84 | 1017.8 |
| 20260901034507 | 18 | 81 | 0.0 | 0.0 | 0.00 | 0.08 | 0.03 | 83 | 1017.7 |
| 20260901033021 | 18 | 81 | 0.0 | 0.0 | 0.00 | 0.08 | 0.03 | 84 | 1017.6 |
| 20260901031509 | 18 | 81 | 0.0 | 0.0 | 0.00 | 0.08 | 0.03 | 84 | 1017.7 |
| 20260901030006 | 18 | 81 | 0.0 | 0.0 | 0.00 | 0.08 | 0.03 | 84 | 1017.8 |
| 20260901024507 | 19 | 81 | 0.0 | 0.0 | 0.00 | 0.08 | 0.03 | 83 | 1017.7 |
| 20260901023005 | 19 | 81 | 0.0 | 1.6 | 0.00 | 0.08 | 0.03 | 83 | 1017.8 |
| 20260901021511 | 19 | 81 | 0.0 | 0.0 | 0.00 | 0.08 | 0.03 | 83 | 1017.8 |
| 20260901020004 | 19 | 81 | 0.0 | 0.0 | 0.00 | 0.08 | 0.03 | 83 | 1018.0 |
| 20260901014504 | 19 | 81 | 0.0 | 0.0 | 0.00 | 0.08 | 0.03 | 83 | 1018.1 |
| 20260901013003 | 19 | 81 | 0.0 | 0.0 | 0.00 | 0.08 | 0.03 | 82 | 1018.1 |
| 20260901011504 | 19 | 81 | 0.0 | 1.6 | 0.00 | 0.08 | 0.03 | 82 | 1017.9 |
| 20260901010006 | 20 | 81 | 0.0 | 0.0 | 0.00 | 0.08 | 0.03 | 82 | 1017.9 |
| 20260901004502 | 20 | 81 | 0.0 | 1.6 | 0.00 | 0.08 | 0.03 | 81 | 1017.8 |
| 20260901003003 | 20 | 81 | 0.0 | 1.6 | 0.00 | 0.08 | 0.03 | 81 | 1017.9 |
| 20260901001601 | 20 | 81 | 0.0 | 3.2 | 0.00 | 0.08 | 0.03 | 80 | 1017.9 |
| 20260901000059 | 20 | 81 | 0.0 | 4.8 | 0.00 | 0.08 | 0.03 | 80 | 1017.9 |
| 20260831234604 | 20 | 81 | 0.0 | 1.6 | 0.00 | 0.08 | 0.03 | 79 | 1017.9 |
| 20260831233105 | 21 | 81 | 0.0 | 3.2 | 0.00 | 0.08 | 0.03 | 79 | 1017.9 |
| 20260831231601 | 21 | 81 | 0.0 | 3.2 | 0.00 | 0.08 | 0.03 | 78 | 1017.9 |
| 20260831230106 | 21 | 81 | 0.0 | 3.2 | 0.00 | 0.08 | 0.03 | 77 | 1017.8 |
| 20260831224557 | 21 | 81 | 0.0 | 1.6 | 0.00 | 0.08 | 0.03 | 77 | 1017.8 |
| 20260831223101 | 22 | 81 | 0.0 | 3.2 | 0.00 | 0.08 | 0.03 | 75 | 1018.0 |
| 20260831221605 | 22 | 81 | 0.0 | 4.8 | 0.00 | 0.08 | 0.03 | 75 | 1018.1 |
| 20260831220054 | 22 | 81 | 0.0 | 4.8 | 0.00 | 0.08 | 0.03 | 74 | 1018.0 |
| 20260831214603 | 22 | 81 | 0.0 | 3.2 | 0.00 | 0.08 | 0.03 | 73 | 1017.9 |
| 20260831213053 | 23 | 81 | 0.0 | 3.2 | 0.00 | 0.08 | 0.03 | 72 | 1017.8 |
| 20260831211552 | 23 | 81 | 1.6 | 6.4 | 0.00 | 0.08 | 0.03 | 71 | 1017.8 |
| 20260831210052 | 23 | 81 | 1.6 | 4.8 | 0.00 | 0.08 | 0.03 | 69 | 1017.8 |
| 20260831204551 | 23 | 132 | 0.0 | 4.8 | 0.00 | 0.08 | 0.03 | 67 | 1017.8 |
| 20260831203059 | 23 | 228 | 0.0 | 6.4 | 0.00 | 0.08 | 0.03 | 65 | 1017.7 |
| 20260831201553 | 23 | 242 | 0.0 | 1.6 | 0.00 | 0.08 | 0.03 | 66 | 1017.6 |